UPS2215 KBWI-KSDF

Flight info

Callsign UPS2215
Flight time 1h 23m
Altitude 32000
Route FOXHL1 OTTTO Q68 YOCKY LEDDL1
Aircraft A306/H-SBDE3GIRWYZ/LB1

Departure

Time 2026-05-06 12:00
Airport Baltimore/Washington International Thurgood Marshall Airport (KBWI)

Arrival

Time 2026-05-06 13:23
Airport Louisville Muhammad Ali International Airport (KSDF)
Time Latitude Longitude Altitude Speed Heading
2026-05-06 11:37 39.18695 -76.66613 172 ft 0 kts 52°
2026-05-06 11:50 39.18693 -76.66616 172 ft 3 kts 52°
2026-05-06 11:50 39.18678 -76.66644 171 ft 4 kts 66°
2026-05-06 11:50 39.18671 -76.66676 171 ft 4 kts 90°
2026-05-06 11:51 39.18675 -76.66705 172 ft 5 kts 132°
2026-05-06 11:51 39.18680 -76.66712 172 ft 3 kts 142°
2026-05-06 11:54 39.18669 -76.66701 172 ft 7 kts 143°
2026-05-06 11:54 39.18587 -76.66648 167 ft 19 kts 155°
2026-05-06 11:54 39.18471 -76.66548 162 ft 20 kts 144°
2026-05-06 11:55 39.18363 -76.66447 162 ft 18 kts 144°
2026-05-06 11:55 39.18330 -76.66333 162 ft 12 kts 98°
2026-05-06 11:55 39.18280 -76.66261 162 ft 11 kts 145°
2026-05-06 11:55 39.18202 -76.66189 162 ft 14 kts 144°
2026-05-06 11:56 39.18123 -76.66117 161 ft 15 kts 144°
2026-05-06 11:56 39.18022 -76.66035 160 ft 17 kts 148°
2026-05-06 11:56 39.17904 -76.65939 153 ft 24 kts 148°
2026-05-06 11:56 39.17764 -76.65826 153 ft 24 kts 147°
2026-05-06 11:57 39.17627 -76.65717 152 ft 23 kts 149°
2026-05-06 11:57 39.17495 -76.65643 149 ft 16 kts 184°
2026-05-06 11:57 39.17430 -76.65614 148 ft 7 kts 117°
2026-05-06 11:57 39.17397 -76.65530 147 ft 12 kts 125°
2026-05-06 11:58 39.17353 -76.65513 147 ft 5 kts 188°
2026-05-06 11:58 39.17304 -76.65522 146 ft 8 kts 189°
2026-05-06 11:58 39.17281 -76.65562 146 ft 4 kts 268°
2026-05-06 11:58 39.17284 -76.65594 147 ft 4 kts 275°
2026-05-06 11:59 39.17291 -76.65724 148 ft 34 kts 274°
2026-05-06 11:59 39.17324 -76.66321 156 ft 98 kts 274°
2026-05-06 11:59 39.17387 -76.67419 157 ft 150 kts 274°
2026-05-06 11:59 39.17464 -76.68924 421 ft 176 kts 270°
2026-05-06 12:00 39.17554 -76.70464 1344 ft 169 kts 266°
2026-05-06 12:00 39.17637 -76.72060 2036 ft 186 kts 265°
2026-05-06 12:00 39.17715 -76.73820 2456 ft 212 kts 265°
2026-05-06 12:00 39.17878 -76.75791 3142 ft 229 kts 274°
2026-05-06 12:01 39.18242 -76.77816 4002 ft 234 kts 277°
2026-05-06 12:01 39.18652 -76.79887 4816 ft 243 kts 278°
2026-05-06 12:01 39.19076 -76.82033 5669 ft 250 kts 278°
2026-05-06 12:01 39.19506 -76.84226 6527 ft 255 kts 278°
2026-05-06 12:02 39.19945 -76.86457 7388 ft 259 kts 278°
2026-05-06 12:02 39.20394 -76.88759 8261 ft 263 kts 278°
2026-05-06 12:02 39.20844 -76.91068 9130 ft 267 kts 278°
2026-05-06 12:02 39.21293 -76.93376 9979 ft 271 kts 277°
2026-05-06 12:03 39.21752 -76.95787 10514 ft 284 kts 276°
2026-05-06 12:03 39.22009 -76.98379 10820 ft 300 kts 268°
2026-05-06 12:03 39.22074 -77.01154 11106 ft 318 kts 266°
2026-05-06 12:03 39.22107 -77.04086 11391 ft 336 kts 266°
2026-05-06 12:04 39.22143 -77.07165 11696 ft 351 kts 266°
2026-05-06 12:04 39.22119 -77.10342 12213 ft 356 kts 261°
2026-05-06 12:04 39.21603 -77.13446 12834 ft 354 kts 247°
2026-05-06 12:04 39.20420 -77.16209 13503 ft 353 kts 231°
2026-05-06 12:05 39.18782 -77.18576 14133 ft 355 kts 226°
2026-05-06 12:05 39.17041 -77.20857 14680 ft 359 kts 225°
2026-05-06 12:05 39.15277 -77.23152 15267 ft 362 kts 226°
2026-05-06 12:05 39.13506 -77.25467 15871 ft 364 kts 226°
2026-05-06 12:06 39.11721 -77.27808 16450 ft 367 kts 227°
2026-05-06 12:06 39.09923 -77.30168 17043 ft 370 kts 227°
2026-05-06 12:06 39.08117 -77.32544 17604 ft 372 kts 227°
2026-05-06 12:06 39.06379 -77.35009 18124 ft 374 kts 233°
2026-05-06 12:07 39.05374 -77.36810 18439 ft 374 kts 238°
2026-05-06 12:07 39.04169 -77.39787 18873 ft 376 kts 248°
2026-05-06 12:07 39.03080 -77.44029 19479 ft 378 kts 253°
2026-05-06 12:07 39.02352 -77.47283 19926 ft 380 kts 253°
2026-05-06 12:08 39.01620 -77.50560 20377 ft 382 kts 254°
2026-05-06 12:08 39.00877 -77.53856 20813 ft 384 kts 254°
2026-05-06 12:08 39.00370 -77.56096 21115 ft 385 kts 254°
2026-05-06 12:08 38.99625 -77.59368 21487 ft 388 kts 254°
2026-05-06 12:09 38.98863 -77.62702 21887 ft 391 kts 254°
2026-05-06 12:09 38.98094 -77.66064 22297 ft 393 kts 254°
2026-05-06 12:09 38.97318 -77.69442 22700 ft 395 kts 255°
2026-05-06 12:09 38.96539 -77.72831 23076 ft 397 kts 255°
2026-05-06 12:10 38.95753 -77.76246 23442 ft 400 kts 255°
2026-05-06 12:10 38.94950 -77.79724 23770 ft 402 kts 255°
2026-05-06 12:10 38.94164 -77.83127 24087 ft 403 kts 255°
2026-05-06 12:10 38.93363 -77.86590 24398 ft 405 kts 255°
2026-05-06 12:11 38.92560 -77.90055 24697 ft 406 kts 255°
2026-05-06 12:11 38.91751 -77.93539 25010 ft 408 kts 255°
2026-05-06 12:11 38.90938 -77.97035 25326 ft 409 kts 255°
2026-05-06 12:11 38.90125 -78.00532 25629 ft 410 kts 255°
2026-05-06 12:12 38.89306 -78.04042 25941 ft 411 kts 256°
2026-05-06 12:12 38.88484 -78.07564 26229 ft 412 kts 256°
2026-05-06 12:12 38.87660 -78.11088 26515 ft 413 kts 256°
2026-05-06 12:12 38.86831 -78.14629 26803 ft 414 kts 256°
2026-05-06 12:13 38.86049 -78.18173 27217 ft 411 kts 258°
2026-05-06 12:13 38.85554 -78.21763 27690 ft 406 kts 265°
2026-05-06 12:13 38.85384 -78.25360 28207 ft 402 kts 269°
2026-05-06 12:13 38.85325 -78.28921 28704 ft 398 kts 270°
2026-05-06 12:14 38.85314 -78.32454 29172 ft 395 kts 271°
2026-05-06 12:14 38.85261 -78.35961 29631 ft 393 kts 268°
2026-05-06 12:14 38.84942 -78.39444 30087 ft 391 kts 263°
2026-05-06 12:14 38.84474 -78.42873 30429 ft 390 kts 262°
2026-05-06 12:15 38.83952 -78.46294 30748 ft 389 kts 262°
2026-05-06 12:15 38.83401 -78.49687 31088 ft 388 kts 261°
2026-05-06 12:15 38.82835 -78.53067 31472 ft 386 kts 261°
2026-05-06 12:15 38.82269 -78.56422 31798 ft 385 kts 261°
2026-05-06 12:16 38.81148 -78.63129 31870 ft 384 kts 261°
2026-05-06 12:16 38.80034 -78.69830 31869 ft 384 kts 261°
2026-05-06 12:17 38.78927 -78.76483 31862 ft 384 kts 261°
2026-05-06 12:17 38.77810 -78.83167 31857 ft 384 kts 261°
2026-05-06 12:18 38.76690 -78.89866 31855 ft 385 kts 261°
2026-05-06 12:18 38.75561 -78.96552 31852 ft 384 kts 261°
2026-05-06 12:19 38.74432 -79.03235 31851 ft 383 kts 261°
2026-05-06 12:19 38.73306 -79.09902 31857 ft 383 kts 261°
2026-05-06 12:20 38.72176 -79.16554 31852 ft 382 kts 261°
2026-05-06 12:20 38.71039 -79.23195 31856 ft 381 kts 261°
2026-05-06 12:21 38.69926 -79.29842 31861 ft 382 kts 261°
2026-05-06 12:21 38.68843 -79.36453 31865 ft 382 kts 261°
2026-05-06 12:22 38.67749 -79.43106 31871 ft 382 kts 261°
2026-05-06 12:22 38.66650 -79.49755 31870 ft 382 kts 261°
2026-05-06 12:23 38.65544 -79.56391 31872 ft 381 kts 261°
2026-05-06 12:23 38.64433 -79.63036 31870 ft 381 kts 261°
2026-05-06 12:24 38.63323 -79.69608 31870 ft 380 kts 261°
2026-05-06 12:24 38.62159 -79.76203 31874 ft 380 kts 260°
2026-05-06 12:25 38.60974 -79.82776 31873 ft 379 kts 260°
2026-05-06 12:25 38.59786 -79.89337 31880 ft 378 kts 260°
2026-05-06 12:26 38.58605 -79.95883 31873 ft 378 kts 260°
2026-05-06 12:26 38.57421 -80.02418 31884 ft 377 kts 260°
2026-05-06 12:27 38.56234 -80.08949 31872 ft 376 kts 261°
2026-05-06 12:27 38.55658 -80.15501 31870 ft 374 kts 271°
2026-05-06 12:28 38.55867 -80.22135 31870 ft 373 kts 273°
2026-05-06 12:28 38.56214 -80.28751 31864 ft 373 kts 274°
2026-05-06 12:29 38.56583 -80.35346 31852 ft 372 kts 273°
2026-05-06 12:29 38.56917 -80.41944 31843 ft 372 kts 273°
2026-05-06 12:30 38.57238 -80.48544 31844 ft 372 kts 273°
2026-05-06 12:30 38.57558 -80.55138 31836 ft 372 kts 273°
2026-05-06 12:31 38.57523 -80.61734 31835 ft 371 kts 265°
2026-05-06 12:31 38.56535 -80.68181 31830 ft 373 kts 259°
2026-05-06 12:32 38.55302 -80.74616 31826 ft 373 kts 259°
2026-05-06 12:32 38.54029 -80.81039 31828 ft 373 kts 259°
2026-05-06 12:33 38.52764 -80.87468 31831 ft 373 kts 259°
2026-05-06 12:33 38.51509 -80.93899 31825 ft 372 kts 259°
2026-05-06 12:34 38.50256 -81.00311 31825 ft 372 kts 259°
2026-05-06 12:34 38.48998 -81.06724 31820 ft 372 kts 259°
2026-05-06 12:35 38.47735 -81.13130 31825 ft 372 kts 259°
2026-05-06 12:35 38.46475 -81.19534 31830 ft 372 kts 258°
2026-05-06 12:36 38.45213 -81.25930 31831 ft 371 kts 259°
2026-05-06 12:36 38.43946 -81.32314 31837 ft 371 kts 258°
2026-05-06 12:37 38.42677 -81.38691 31847 ft 370 kts 259°
2026-05-06 12:37 38.41407 -81.45051 31847 ft 370 kts 259°
2026-05-06 12:38 38.40135 -81.51403 31854 ft 370 kts 258°
2026-05-06 12:38 38.38856 -81.57757 31852 ft 370 kts 258°
2026-05-06 12:39 38.37577 -81.64099 31856 ft 369 kts 258°
2026-05-06 12:39 38.36305 -81.70392 31852 ft 369 kts 258°
2026-05-06 12:40 38.34981 -81.76712 31847 ft 370 kts 256°
2026-05-06 12:40 38.33317 -81.82925 31841 ft 371 kts 255°
2026-05-06 12:41 38.31596 -81.89117 31836 ft 371 kts 255°
2026-05-06 12:41 38.29858 -81.95289 31832 ft 371 kts 254°
2026-05-06 12:42 38.28119 -82.01462 31831 ft 370 kts 254°
2026-05-06 12:42 38.26383 -82.07623 31829 ft 370 kts 254°
2026-05-06 12:43 38.24644 -82.13787 31828 ft 370 kts 254°
2026-05-06 12:43 38.22903 -82.19948 31835 ft 370 kts 254°
2026-05-06 12:44 38.21159 -82.26096 31839 ft 369 kts 254°
2026-05-06 12:44 38.19416 -82.32233 31845 ft 369 kts 254°
2026-05-06 12:45 38.17667 -82.38370 31846 ft 369 kts 254°
2026-05-06 12:46 38.15042 -82.47554 31844 ft 368 kts 254°
2026-05-06 12:46 38.13291 -82.53666 31847 ft 368 kts 254°
2026-05-06 12:47 38.11534 -82.59776 31839 ft 368 kts 254°
2026-05-06 12:47 38.09778 -82.65873 31831 ft 368 kts 254°
2026-05-06 12:48 38.08018 -82.71976 31836 ft 368 kts 254°
2026-05-06 12:48 38.06270 -82.78022 31831 ft 367 kts 254°
2026-05-06 12:49 38.04504 -82.84115 31836 ft 368 kts 254°
2026-05-06 12:49 38.02738 -82.90194 31831 ft 367 kts 254°
2026-05-06 12:50 38.00968 -82.96272 31827 ft 367 kts 254°
2026-05-06 12:50 37.99197 -83.02339 31831 ft 367 kts 254°
2026-05-06 12:51 37.97423 -83.08408 31829 ft 367 kts 254°
2026-05-06 12:51 37.95644 -83.14476 31832 ft 366 kts 254°
2026-05-06 12:52 37.93869 -83.20520 31831 ft 366 kts 254°
2026-05-06 12:52 37.92094 -83.26549 31842 ft 365 kts 254°
2026-05-06 12:53 37.90312 -83.32584 31851 ft 365 kts 253°
2026-05-06 12:53 37.88546 -83.38562 31851 ft 365 kts 253°
2026-05-06 12:54 37.86762 -83.44581 31852 ft 365 kts 253°
2026-05-06 12:54 37.84975 -83.50595 31855 ft 365 kts 253°
2026-05-06 12:55 37.83191 -83.56593 31851 ft 364 kts 253°
2026-05-06 12:55 37.81704 -83.61576 31851 ft 364 kts 253°
2026-05-06 12:55 37.80809 -83.64575 31696 ft 363 kts 253°
2026-05-06 12:56 37.79913 -83.67568 31454 ft 364 kts 253°
2026-05-06 12:56 37.79016 -83.70567 31209 ft 366 kts 253°
2026-05-06 12:56 37.78111 -83.73587 30976 ft 368 kts 253°
2026-05-06 12:56 37.77199 -83.76625 30747 ft 370 kts 253°
2026-05-06 12:57 37.76284 -83.79677 30504 ft 372 kts 252°
2026-05-06 12:57 37.75364 -83.82739 30270 ft 373 kts 252°
2026-05-06 12:57 37.74440 -83.85807 30043 ft 375 kts 252°
2026-05-06 12:57 37.73513 -83.88887 29785 ft 376 kts 252°
2026-05-06 12:58 37.72588 -83.91954 29512 ft 377 kts 252°
2026-05-06 12:58 37.71657 -83.95033 29119 ft 371 kts 252°
2026-05-06 12:58 37.70743 -83.98049 28571 ft 364 kts 252°
2026-05-06 12:58 37.69848 -84.01000 28005 ft 357 kts 252°
2026-05-06 12:59 37.68963 -84.03918 27469 ft 356 kts 252°
2026-05-06 12:59 37.68072 -84.06859 26867 ft 359 kts 252°
2026-05-06 12:59 37.67179 -84.09804 26317 ft 359 kts 252°
2026-05-06 12:59 37.66288 -84.12735 25958 ft 356 kts 252°
2026-05-06 13:00 37.65421 -84.15655 25582 ft 354 kts 253°
2026-05-06 13:00 37.64636 -84.18600 25225 ft 352 kts 254°
2026-05-06 13:00 37.63887 -84.21491 24856 ft 351 kts 254°
2026-05-06 13:00 37.63132 -84.24418 24471 ft 350 kts 254°
2026-05-06 13:01 37.62380 -84.27328 24070 ft 348 kts 254°
2026-05-06 13:01 37.61630 -84.30226 23683 ft 347 kts 254°
2026-05-06 13:01 37.60880 -84.33116 23254 ft 346 kts 254°
2026-05-06 13:01 37.60135 -84.35982 22856 ft 344 kts 254°
2026-05-06 13:02 37.59392 -84.38841 22477 ft 342 kts 253°
2026-05-06 13:02 37.58652 -84.41684 22102 ft 341 kts 253°
2026-05-06 13:02 37.57912 -84.44518 21723 ft 339 kts 253°
2026-05-06 13:02 37.57176 -84.47342 21347 ft 338 kts 253°
2026-05-06 13:03 37.56444 -84.50145 20970 ft 336 kts 253°
2026-05-06 13:03 37.55713 -84.52938 20592 ft 335 kts 253°
2026-05-06 13:03 37.54987 -84.55709 20228 ft 333 kts 253°
2026-05-06 13:03 37.54261 -84.58476 19887 ft 332 kts 253°
2026-05-06 13:04 37.53538 -84.61232 19529 ft 330 kts 253°
2026-05-06 13:04 37.52818 -84.63975 19177 ft 329 kts 252°
2026-05-06 13:04 37.52099 -84.66707 18824 ft 327 kts 252°
2026-05-06 13:04 37.51383 -84.69422 18461 ft 326 kts 252°
2026-05-06 13:05 37.50667 -84.72137 18068 ft 325 kts 252°
2026-05-06 13:05 37.49954 -84.74837 17689 ft 324 kts 252°
2026-05-06 13:05 37.49253 -84.77484 17323 ft 322 kts 252°
2026-05-06 13:05 37.48548 -84.80149 16948 ft 321 kts 253°
2026-05-06 13:06 37.47843 -84.82810 16579 ft 320 kts 253°
2026-05-06 13:06 37.47139 -84.85468 16207 ft 319 kts 253°
2026-05-06 13:06 37.46582 -84.88158 15833 ft 317 kts 261°
2026-05-06 13:06 37.46491 -84.90923 15489 ft 316 kts 273°
2026-05-06 13:07 37.46953 -84.93568 15400 ft 305 kts 284°
2026-05-06 13:07 37.47874 -84.95924 15301 ft 298 kts 296°
2026-05-06 13:07 37.49198 -84.97925 15169 ft 296 kts 307°
2026-05-06 13:07 37.50720 -84.99628 15038 ft 290 kts 310°
2026-05-06 13:08 37.52251 -85.01248 14866 ft 286 kts 310°
2026-05-06 13:08 37.53776 -85.02872 14535 ft 287 kts 310°
2026-05-06 13:08 37.55295 -85.04497 14238 ft 286 kts 310°
2026-05-06 13:08 37.56827 -85.06094 13960 ft 287 kts 314°
2026-05-06 13:09 37.58611 -85.07401 13656 ft 311 kts 327°
2026-05-06 13:09 37.60702 -85.08328 13310 ft 324 kts 333°
2026-05-06 13:09 37.62862 -85.09142 13021 ft 321 kts 334°
2026-05-06 13:09 37.64970 -85.09917 12819 ft 311 kts 334°
2026-05-06 13:10 37.67019 -85.10683 12524 ft 303 kts 333°
2026-05-06 13:10 37.69016 -85.11441 12222 ft 297 kts 333°
2026-05-06 13:10 37.70880 -85.12384 11911 ft 281 kts 321°
2026-05-06 13:10 37.72347 -85.13862 11638 ft 262 kts 304°
2026-05-06 13:11 37.73295 -85.15743 11387 ft 249 kts 288°
2026-05-06 13:11 37.73741 -85.17827 11136 ft 245 kts 277°
2026-05-06 13:11 37.73960 -85.19976 10884 ft 246 kts 275°
2026-05-06 13:11 37.74145 -85.22128 10652 ft 247 kts 275°
2026-05-06 13:12 37.74331 -85.24280 10411 ft 247 kts 275°
2026-05-06 13:12 37.74521 -85.26432 10170 ft 247 kts 274°
2026-05-06 13:12 37.74667 -85.28597 9888 ft 247 kts 272°
2026-05-06 13:12 37.74780 -85.30760 9581 ft 246 kts 272°
2026-05-06 13:13 37.74887 -85.32919 9331 ft 246 kts 272°
2026-05-06 13:13 37.74991 -85.35051 9092 ft 246 kts 272°
2026-05-06 13:13 37.75096 -85.37214 8854 ft 247 kts 272°
2026-05-06 13:13 37.75201 -85.39378 8607 ft 247 kts 272°
2026-05-06 13:14 37.75309 -85.41543 8363 ft 247 kts 273°
2026-05-06 13:14 37.75539 -85.43691 8106 ft 247 kts 278°
2026-05-06 13:14 37.75850 -85.45826 7880 ft 247 kts 278°
2026-05-06 13:14 37.76170 -85.47955 7639 ft 247 kts 278°
2026-05-06 13:15 37.76492 -85.50082 7399 ft 247 kts 278°
2026-05-06 13:15 37.76813 -85.52226 7149 ft 248 kts 278°
2026-05-06 13:15 37.77187 -85.54347 6991 ft 249 kts 284°
2026-05-06 13:15 37.77981 -85.56297 6738 ft 254 kts 303°
2026-05-06 13:16 37.79189 -85.57952 6525 ft 257 kts 310°
2026-05-06 13:16 37.80474 -85.59527 6328 ft 258 kts 311°
2026-05-06 13:16 37.81766 -85.61100 6121 ft 258 kts 312°
2026-05-06 13:16 37.83096 -85.62639 5982 ft 261 kts 317°
2026-05-06 13:17 37.84718 -85.63725 5718 ft 268 kts 336°
2026-05-06 13:17 37.86519 -85.64374 5472 ft 269 kts 341°
2026-05-06 13:17 37.88337 -85.64940 5266 ft 269 kts 343°
2026-05-06 13:17 37.90150 -85.65499 5038 ft 268 kts 342°
2026-05-06 13:18 37.91956 -85.66079 4816 ft 268 kts 343°
2026-05-06 13:18 37.93762 -85.66664 4421 ft 267 kts 343°
2026-05-06 13:18 37.95551 -85.67247 4125 ft 263 kts 343°
2026-05-06 13:18 37.97295 -85.67818 3901 ft 258 kts 344°
2026-05-06 13:19 37.99066 -85.68404 3291 ft 267 kts 346°
2026-05-06 13:19 38.00856 -85.68998 3027 ft 261 kts 346°
2026-05-06 13:19 38.02525 -85.69550 2983 ft 238 kts 346°
2026-05-06 13:19 38.04059 -85.70053 2963 ft 215 kts 346°
2026-05-06 13:20 38.05436 -85.70503 2886 ft 201 kts 347°
2026-05-06 13:20 38.06756 -85.70938 2503 ft 193 kts 348°
2026-05-06 13:20 38.08037 -85.71360 2138 ft 186 kts 347°
2026-05-06 13:20 38.09250 -85.71760 1874 ft 173 kts 347°
2026-05-06 13:21 38.10372 -85.72130 1671 ft 160 kts 346°
2026-05-06 13:21 38.11387 -85.72466 1454 ft 140 kts 346°
2026-05-06 13:21 38.12295 -85.72760 1241 ft 134 kts 347°
2026-05-06 13:21 38.13190 -85.73063 1024 ft 131 kts 346°
2026-05-06 13:22 38.14060 -85.73354 846 ft 127 kts 347°
2026-05-06 13:22 38.14901 -85.73626 682 ft 125 kts 347°
2026-05-06 13:22 38.15758 -85.73909 538 ft 128 kts 347°
2026-05-06 13:22 38.16590 -85.74179 487 ft 113 kts 345°
2026-05-06 13:23 38.17249 -85.74397 485 ft 86 kts 345°
2026-05-06 13:23 38.17660 -85.74533 491 ft 40 kts 345°
2026-05-06 13:23 38.17837 -85.74582 491 ft 10 kts 25°
2026-05-06 13:23 38.17847 -85.74525 497 ft 8 kts 101°
2026-05-06 13:24 38.17819 -85.74437 489 ft 10 kts 122°
2026-05-06 13:24 38.17747 -85.74400 487 ft 12 kts 166°
2026-05-06 13:24 38.17672 -85.74376 486 ft 11 kts 166°
2026-05-06 13:24 38.17602 -85.74354 490 ft 10 kts 166°
2026-05-06 13:25 38.17533 -85.74330 489 ft 14 kts 163°
2026-05-06 13:25 38.17435 -85.74297 489 ft 15 kts 165°
2026-05-06 13:25 38.17333 -85.74264 488 ft 15 kts 166°
2026-05-06 13:25 38.17212 -85.74225 489 ft 18 kts 165°
2026-05-06 13:26 38.17129 -85.74143 489 ft 15 kts 93°
2026-05-06 13:26 38.17137 -85.74028 490 ft 12 kts 99°
2026-05-06 13:26 38.17111 -85.73938 486 ft 12 kts 111°
2026-05-06 13:26 38.17075 -85.73822 487 ft 14 kts 111°
2026-05-06 13:27 38.17041 -85.73710 490 ft 13 kts 111°
2026-05-06 13:27 38.17008 -85.73621 487 ft 4 kts 147°
2026-05-06 13:27 38.16986 -85.73616 486 ft 2 kts 173°
2026-05-06 13:27 38.16972 -85.73623 489 ft 3 kts 199°
2026-05-06 13:28 38.16957 -85.73629 495 ft 2 kts 200°
2026-05-06 13:28 38.16950 -85.73632 490 ft 0 kts 200°